When you browse on this site, cookies collect data to enhance your experience and personalize the content and advertising you see.
Visit our Privacy Policy to learn more. By continuing to use the site, you agree to this use of cookies and data.
  • In Czech Republic
  • List of Countries
  • For 7 days
  • Water Temperature
  • Satellite Maps
  • Weather Map
  • Weather Widgets
  • user-avatar
    Login

    Hourly Weather Shrewsbury

    Today, 20 January, Sunday

    Time Temperature Precipitation Wind Pressure Humidity
    00:00 +4°C° 0 mm 1 mps 753 mmHg 96%
    01:00 +4°C° 0 mm 1 mps 753 mmHg 96%
    02:00 +4°C° 0 mm 1 mps 753 mmHg 97%
    03:00 +4°C° 0 mm 1 mps 754 mmHg 97%
    04:00 +4°C° 0 mm 1 mps 754 mmHg 96%
    05:00 +2°C° 0 mm 0 mps 754 mmHg 96%
    06:00 +2°C° 0 mm 0 mps 755 mmHg 96%
    07:00 +2°C° 0 mm 0 mps 755 mmHg 95%
    08:00 +2°C° 0 mm 0 mps 756 mmHg 95%
    09:00 +2°C° 0 mm 0 mps 757 mmHg 95%
    10:00 +3°C° 0 mm 0 mps 757 mmHg 92%
    11:00 +4°C° 0 mm 0 mps 758 mmHg 90%
    12:00 +5°C° 0 mm 0 mps 758 mmHg 88%
    13:00 +6°C° 0 mm 1 mps 759 mmHg 88%
    14:00 +6°C° 0 mm 1 mps 759 mmHg 87%
    15:00 +5°C° 0 mm 2 mps 759 mmHg 87%
    16:00 +6°C° 0 mm 1 mps 760 mmHg 89%
    17:00 +5°C° 0 mm 1 mps 760 mmHg 90%
    18:00 +4°C° 0 mm 1 mps 761 mmHg 92%
    19:00 +4°C° 0 mm 1 mps 761 mmHg 92%
    20:00 +4°C° 0 mm 1 mps 762 mmHg 92%
    21:00 +3°C° 0 mm 1 mps 762 mmHg 93%
    22:00 +4°C° 0.1 mm 1 mps 762 mmHg 94%
    23:00 +4°C° 0.1 mm 1 mps 763 mmHg 95%

    Tomorrow, 21 January, Monday

    Time Temperature Precipitation Wind Pressure Humidity
    00:00 +4°C° 0.1 mm 2 mps 763 mmHg 96%
    01:00 +3°C° 0 mm 2 mps 763 mmHg 96%
    02:00 +4°C° 0 mm 1 mps 763 mmHg 96%
    03:00 +3°C° 0 mm 1 mps 763 mmHg 96%
    04:00 +3°C° 0 mm 1 mps 763 mmHg 95%
    05:00 +2°C° 0 mm 0 mps 763 mmHg 94%
    06:00 +2°C° 0 mm 0 mps 762 mmHg 94%
    07:00 +2°C° 0 mm 0 mps 762 mmHg 94%
    08:00 +3°C° 0 mm 1 mps 762 mmHg 94%
    09:00 +3°C° 0 mm 1 mps 762 mmHg 95%
    10:00 +3°C° 0 mm 2 mps 761 mmHg 92%
    11:00 +3°C° 0 mm 3 mps 761 mmHg 90%
    12:00 +4°C° 0 mm 4 mps 760 mmHg 88%
    13:00 +4°C° 0 mm 4 mps 759 mmHg 86%
    14:00 +4°C° 0 mm 4 mps 758 mmHg 85%
    15:00 +4°C° 0 mm 4 mps 757 mmHg 83%
    16:00 +4°C° 0 mm 4 mps 756 mmHg 84%
    17:00 +3°C° 0 mm 5 mps 754 mmHg 85%
    18:00 +2°C° 0 mm 5 mps 753 mmHg 86%
    19:00 +3°C° 0.2 mm 6 mps 752 mmHg 86%
    20:00 +3°C° 0.2 mm 7 mps 750 mmHg 86%
    21:00 +2°C° 0.2 mm 8 mps 749 mmHg 86%
    22:00 +2°C° 1.3 mm 7 mps 748 mmHg 85%
    23:00 +1°C° 1.3 mm 6 mps 747 mmHg 84%

    Day after tomorrow, 22 January, Tuesday

    Time Temperature Precipitation Wind Pressure Humidity
    00:00 0°C° 1.3 mm 5 mps 747 mmHg 83%
    01:00 0°C° 0 mm 5 mps 746 mmHg 84%
    02:00 -1°C° 0 mm 4 mps 746 mmHg 84%
    03:00 -2°C° 0 mm 4 mps 746 mmHg 85%
    04:00 -2°C° 0 mm 4 mps 745 mmHg 85%
    05:00 -2°C° 0 mm 4 mps 745 mmHg 84%
    06:00 -2°C° 0 mm 4 mps 744 mmHg 84%
    07:00 -2°C° 0 mm 4 mps 744 mmHg 84%
    08:00 -2°C° 0 mm 4 mps 744 mmHg 84%
    09:00 -2°C° 0 mm 4 mps 744 mmHg 83%
    10:00 -1°C° 0 mm 5 mps 744 mmHg 79%
    11:00 -1°C° 0 mm 6 mps 744 mmHg 74%
    12:00 0°C° 0 mm 7 mps 744 mmHg 70%
    13:00 0°C° 0.1 mm 7 mps 744 mmHg 71%
    14:00 0°C° 0.1 mm 7 mps 744 mmHg 71%
    15:00 +1°C° 0.1 mm 6 mps 744 mmHg 72%
    16:00 -1°C° 0 mm 6 mps 744 mmHg 74%
    17:00 -1°C° 0 mm 5 mps 744 mmHg 77%
    18:00 -2°C° 0 mm 4 mps 745 mmHg 79%
    19:00 -2°C° 0 mm 4 mps 745 mmHg 80%
    20:00 -2°C° 0 mm 4 mps 745 mmHg 80%
    21:00 -3°C° 0 mm 4 mps 746 mmHg 81%
    22:00 -2°C° 0 mm 4 mps 746 mmHg 80%
    23:00 -2°C° 0 mm 4 mps 746 mmHg 80%

    23 January, Wednesday

    Time Temperature Precipitation Wind Pressure Humidity
    00:00 -2°C° 0 mm 4 mps 746 mmHg 80%
    01:00 -2°C° 0 mm 4 mps 746 mmHg 81%
    02:00 -1°C° 0 mm 3 mps 746 mmHg 82%
    03:00 -1°C° 0 mm 3 mps 747 mmHg 83%
    04:00 -1°C° 0 mm 3 mps 747 mmHg 83%
    05:00 -1°C° 0 mm 3 mps 747 mmHg 83%
    06:00 0°C° 0 mm 3 mps 747 mmHg 83%
    07:00 0°C° 0 mm 3 mps 748 mmHg 84%
    08:00 0°C° 0 mm 3 mps 748 mmHg 85%
    09:00 0°C° 0 mm 3 mps 749 mmHg 86%
    10:00 +1°C° 0 mm 3 mps 749 mmHg 81%
    11:00 +2°C° 0 mm 3 mps 749 mmHg 77%
    12:00 +3°C° 0 mm 4 mps 749 mmHg 72%
    13:00 +3°C° 0.1 mm 4 mps 749 mmHg 75%
    14:00 +3°C° 0.1 mm 3 mps 749 mmHg 77%
    15:00 +3°C° 0.1 mm 3 mps 750 mmHg 80%
    16:00 +2°C° 0 mm 3 mps 750 mmHg 83%
    17:00 +1°C° 0 mm 3 mps 750 mmHg 87%
    18:00 0°C° 0 mm 3 mps 751 mmHg 90%
    19:00 0°C° 0 mm 3 mps 751 mmHg 91%
    20:00 0°C° 0 mm 3 mps 752 mmHg 91%
    21:00 -1°C° 0 mm 3 mps 752 mmHg 91%
    22:00 -1°C° 0 mm 3 mps 752 mmHg 91%
    23:00 -1°C° 0 mm 3 mps 753 mmHg 91%

    24 January, Thursday

    Time Temperature Precipitation Wind Pressure Humidity
    00:00 -1°C° 0 mm 3 mps 753 mmHg 91%
    01:00 -1°C° 0 mm 3 mps 753 mmHg 91%
    02:00 -1°C° 0 mm 3 mps 753 mmHg 91%
    03:00 -1°C° 0 mm 3 mps 753 mmHg 91%
    04:00 0°C° 0 mm 3 mps 754 mmHg 91%
    05:00 0°C° 0 mm 3 mps 754 mmHg 91%
    06:00 0°C° 0 mm 3 mps 754 mmHg 91%
    07:00 0°C° 0 mm 3 mps 755 mmHg 92%
    08:00 0°C° 0 mm 3 mps 755 mmHg 92%
    09:00 0°C° 0 mm 3 mps 755 mmHg 92%
    10:00 +1°C° 0 mm 3 mps 756 mmHg 89%
    11:00 +4°C° 0 mm 2 mps 756 mmHg 85%
    12:00 +5°C° 0 mm 2 mps 756 mmHg 82%
    13:00 +5°C° 0 mm 2 mps 756 mmHg 84%
    14:00 +6°C° 0 mm 1 mps 756 mmHg 85%
    15:00 +6°C° 0 mm 1 mps 756 mmHg 87%
    16:00 +5°C° 0 mm 1 mps 757 mmHg 88%
    17:00 +3°C° 0 mm 0 mps 757 mmHg 89%
    18:00 +2°C° 0 mm 0 mps 758 mmHg 90%
    19:00 +2°C° 0 mm 0 mps 758 mmHg 90%
    20:00 +3°C° 0 mm 1 mps 758 mmHg 90%
    21:00 +3°C° 0 mm 1 mps 759 mmHg 89%
    22:00 +4°C° 0 mm 1 mps 759 mmHg 89%
    23:00 +3°C° 0 mm 2 mps 759 mmHg 89%

    25 January, Friday

    Time Temperature Precipitation Wind Pressure Humidity
    00:00 +3°C° 0 mm 2 mps 759 mmHg 89%
    01:00 +3°C° 0 mm 2 mps 759 mmHg 89%
    02:00 +3°C° 0 mm 2 mps 759 mmHg 89%
    03:00 +3°C° 0 mm 2 mps 759 mmHg 90%
    04:00 +3°C° 0 mm 2 mps 760 mmHg 91%
    05:00 +4°C° 0 mm 2 mps 760 mmHg 93%
    06:00 +4°C° 0 mm 2 mps 760 mmHg 94%
    07:00 +4°C° 0 mm 2 mps 760 mmHg 95%
    08:00 +5°C° 0 mm 2 mps 760 mmHg 95%
    09:00 +5°C° 0 mm 2 mps 760 mmHg 96%
    10:00 +6°C° 0 mm 2 mps 760 mmHg 95%
    11:00 +7°C° 0 mm 2 mps 760 mmHg 95%
    12:00 +7°C° 0 mm 2 mps 760 mmHg 95%
    13:00 +8°C° 0 mm 2 mps 760 mmHg 94%
    14:00 +8°C° 0 mm 2 mps 760 mmHg 93%
    15:00 +8°C° 0 mm 2 mps 760 mmHg 92%
    16:00 +7°C° 0 mm 2 mps 760 mmHg 92%
    17:00 +6°C° 0 mm 2 mps 760 mmHg 93%
    18:00 +5°C° 0 mm 2 mps 760 mmHg 94%
    19:00 +4°C° 0 mm 3 mps 760 mmHg 94%
    20:00 +3°C° 0 mm 3 mps 760 mmHg 94%
    21:00 +3°C° 0 mm 3 mps 759 mmHg 94%
    22:00 +3°C° 0 mm 3 mps 759 mmHg 93%
    23:00 +3°C° 0 mm 3 mps 759 mmHg 93%
    Show more